Regional Weather Roundup
Issued by NWS

Home | Current Version | Previous Version | Graphics & Text | Print | Product List | Glossary On
Versions: 1 2 3 4 5 6 7 8 9 10 11 12 13 14 15 16 17 18 19 20 21 22 23 24 25 26 27 28 29 30 31 32 33 34 35 36 37 38 39 40 41 42 43 44 45 46 47 48 49 50
000
ASUS43 KOAX 261810
RWRNE

WEATHER ROUNDUP FOR NEBRASKA
NATIONAL WEATHER SERVICE OMAHA NE
100 PM CDT TUE JUL 26 2016

NOTES: SATELLITE DATA IS BEING USED TO AUGMENT CLOUD COVER ABOVE
       12000 FEET.
       "FAIR" INDICATES FEW OR NO CLOUDS BELOW 12,000 FEET WITH NO
       SIGNIFICANT WEATHER AND/OR OBSTRUCTIONS TO VISIBILITY.

  * THESE STATIONS DO NOT REPORT WEATHER SUCH AS RAIN...SNOW OR FOG.

NEZ001>004-019>022-054>056-261900-
NEBRASKA PANHANDLE

CITY           SKY/WX    TMP DP  RH WIND       PRES   REMARKS
SCOTTSBLUFF    SUNNY     87  54  32 N6        30.05F
6HR MIN TEMP:  63; 6HR MAX TEMP:  89;

ALLIANCE       SUNNY     85  63  47 SE10      30.05F
6HR MIN TEMP:  63; 6HR MAX TEMP:  85;

CHADRON        SUNNY     86  60  41 VRB5      30.02F
6HR MIN TEMP:  69; 6HR MAX TEMP:  86;

KIMBALL        SUNNY     89  51  26 W9        30.12F
SIDNEY         SUNNY     89  57  33 S10G20    30.10F
6HR MIN TEMP:  64; 6HR MAX TEMP:  90;

$$

NEZ057>060-069>072-079>082-261900-
SOUTHWEST NEBRASKA

CITY           SKY/WX    TMP DP  RH WIND       PRES   REMARKS
NORTH PLATTE   SUNNY     84  67  56 S9        30.06S
6HR MIN TEMP:  65; 6HR MAX TEMP:  84;

IMPERIAL       SUNNY     86  64  47 S16G24    30.06F
6HR MIN TEMP:  66; 6HR MAX TEMP:  87;

LEXINGTON      SUNNY     82  66  58 SE13G18   30.06F
MCCOOK         SUNNY     87  65  47 S15       30.05F
6HR MIN TEMP:  64; 6HR MAX TEMP:  88;

OGALLALA       SUNNY     87  65  47 S12       30.05F
$$

NEZ005>010-023>029-035>040-094-261900-
NORTH CENTRAL NEBRASKA

CITY           SKY/WX    TMP DP  RH WIND       PRES   REMARKS
VALENTINE      CLOUDY    88  62  41 W9        30.05F
6HR MIN TEMP:  69; 6HR MAX TEMP:  88;

AINSWORTH      MOSUNNY   86  66  52 SW8       30.08S
BROKEN BOW     SUNNY     82  66  58 S14G23    30.07F
6HR MIN TEMP:  62; 6HR MAX TEMP:  82;

O`NEILL        SUNNY     86  57  36 S13       30.07S
ORD            SUNNY     82  63  52 SE10      30.05F
6HR MIN TEMP:  62; 6HR MAX TEMP:  83;

THEDFORD       SUNNY     86  64  46 S12       30.09R
$$

NEZ041-046>049-061>064-073>077-083>087-261900-
SOUTH CENTRAL NEBRASKA

CITY           SKY/WX    TMP DP  RH WIND       PRES   REMARKS
GRAND ISLAND   SUNNY     83  64  52 SE13      30.08F
6HR MIN TEMP:  62; 6HR MAX TEMP:  85;

AURORA         SUNNY     83  64  52 S7        30.08F
HASTINGS       SUNNY     84  65  52 S8        30.08F
6HR MIN TEMP:  64; 6HR MAX TEMP:  85;

HEBRON         SUNNY     84  63  49 SE5       30.07F
HOLDREGE       SUNNY     80  64  58 S10       30.08F
KEARNEY *      SUNNY     82  64  54 S13       30.08F
YORK           SUNNY     82  66  57 SE8       30.08F
$$

NEZ011>018-030>034-042>045-261900-
NORTHEAST NEBRASKA

CITY           SKY/WX    TMP DP  RH WIND       PRES   REMARKS
NORFOLK        SUNNY     82  66  58 S8        30.07F
6HR MIN TEMP:  60; 6HR MAX TEMP:  83;

ALBION         SUNNY     81  66  59 SE10      30.07F
BLAIR          SUNNY     83  65  55 SE6       30.08F
FREMONT        SUNNY     84  64  51 SE7       30.07F
TEKAMAH        SUNNY     85  64  49 SE13      30.06F
6HR MIN TEMP:  61; 6HR MAX TEMP:  85;

WAYNE          SUNNY     82  70  65 S7        30.07F
$$

NEZ050>053-065>068-078-088>093-261900-
SOUTHEAST NEBRASKA

CITY           SKY/WX    TMP DP  RH WIND       PRES   REMARKS
LINCOLN        SUNNY     86  66  51 SE7       30.08F
6HR MIN TEMP:  63; 6HR MAX TEMP:  86;

OMAHA EPPLEY   PTSUNNY   85  62  46 E5        30.07F
6HR MIN TEMP:  67; 6HR MAX TEMP:  85;

BEATRICE       SUNNY     85  64  49 E7        30.07S
FALLS CITY     SUNNY     84  68  58 SE8       30.06F
6HR MIN TEMP:  68; 6HR MAX TEMP:  85;

NEBRASKA CITY  SUNNY     82  62  51 SE7       30.09S
PLATTSMOUTH    SUNNY     83  65  54 E7        30.08F
$$

NEZ044-045-051>053-067-261900-
OMAHA AREA

CITY           SKY/WX    TMP DP  RH WIND       PRES   REMARKS
OMAHA EPPLEY   PTSUNNY   85  62  46 E5        30.07F
6HR MIN TEMP:  67; 6HR MAX TEMP:  85;

BLAIR          SUNNY     83  65  55 SE6       30.08F
FREMONT        SUNNY     84  64  51 SE7       30.07F
MILLARD        SUNNY     83  65  54 SE3       30.07F
OFFUTT AFB     SUNNY     84  64  50 SE7       30.07F
PLATTSMOUTH    SUNNY     83  65  54 E7        30.08F
WAHOO          FAIR      83  65  53 SE7       30.07F
$$




USA.gov is the U.S. government's official web portal to all federal, state and local government web resources and services.